Location: Spring Creek
(38.2870°N, 100.2160°W)
Time: 00:01:16
(UTC+00:00)

Cosmos 2297 Rocket - Pass Details

Date: 04 October 2021
Orbit: 841 x 842 km, 71.0° (Epoch: 18 October)

Event Time Altitude Azimuth Distance (km) Brightness Sun altitude
Rises 01:37:51 0° 350° (N) 3,403 5.6 -16.1°
Reaches altitude 10° 01:40:55 10° 6° (N) 2,465 4.6 -16.7°
Maximum altitude 01:45:10 21° 55° (NE) 1,791 3.5 -17.5°
Enters shadow 01:45:32 21° 60° (ENE) 1,797 3.5 -17.6°
